NOAA NWS Hourly Roundups by Site

Regional Weather Roundup for Upton, NY

To Select Another Site Choose from List

Select Site:  

492
ASUS41 KOKX 191314
RWROKX

Regional Weather Roundup
National Weather Service New York NY
800 AM EST SUN JAN 19 2020

Note: "FAIR" indicates few or no clouds below 12,000 feet with no
significant weather and/or obstructions to visibility.

NYZ071-072-176-178-NJZ106-104-191400-
New York City Metro Area

CITY           SKY/WX    TMP DP  RH WIND       PRES   REMARKS
Central Park   FAIR      39  29  67 W8G16     29.72R WCI  33
Bronx Lehman C   N/A     39  30  70 NW15G28     N/A  WCI  31
LaGuardia Arpt FAIR      39  29  67 W15G24    29.71R WCI  31
Queens College   N/A     39  32  75 W13         N/A  WCI  32
Kennedy Intl   MOCLDY    38  34  85 NW5       29.70F WCI  34
Breezy Point     N/A     39 N/A N/A NW10G16     N/A  WCI  32
Brooklyn Coll    N/A     39  32  75 W15G26      N/A  WCI  31
Staten Island    N/A     39  30  70 NW10        N/A  WCI  32
Newark/Liberty FAIR      38  30  73 W13       29.71S WCI  30
Teterboro      MOCLDY    39  33  79 W10       29.71R WCI  32
$$

NYZ177-179-078>081-191400-
Long Island New York

CITY           SKY/WX    TMP DP  RH WIND       PRES   REMARKS
Jones Beach      N/A     37 N/A N/A W10         N/A  WCI  30
Wantagh          N/A     36  34  93 SW2         N/A
Hempstead        N/A     39  32  75 NW12      29.73  WCI  32
Matinecock Pt    N/A     39 N/A N/A W22         N/A  WCI  29
Farmingdale    FAIR      38  30  73 NW8       29.69S WCI  32
MacArthur/ISP  FAIR      36  31  82 W8        29.69R WCI  30
Stony Brook      N/A     37  32  81 NW7         N/A  WCI  32
Shirley        FAIR      38  30  73 W7        29.69R WCI  33
Mt Sinai Harb    N/A    N/A N/A N/A W6G12       N/A
Westhampton    FAIR      35  32  88 W7        29.70R WCI  29
East Hampton   FAIR      36  34  92 W6        29.67S WCI  31
Southold         N/A     37  34  87 W7G18       N/A  WCI  32
Montauk          N/A     39  35  86 W8        29.67S WCI  33
$$

NYZ052-065-067-191400-
Hudson Valley

CITY           SKY/WX    TMP DP  RH WIND       PRES   REMARKS
White Plains   FAIR      37  27  67 W13       29.68R WCI  29
Larchmont Harb   N/A     37 N/A N/A W13         N/A  WCI  29
Croton On Huds   N/A     37 N/A N/A W10         N/A  WCI  30
Somers           N/A     34  28  80 E1          N/A
Brewster         N/A     32  30  93 NW5         N/A  WCI  27
Newburgh       MOCLDY    32  32 100 CALM      29.68R
Montgomery     MOCLDY    26  26 100 SW3       29.67S
Otisville        N/A     32  32 100 SW3         N/A
Warwick          N/A     36  32  87 W9          N/A  WCI  29
Suffern          N/A     36  30  80 W7          N/A  WCI  30
Poughkeepsie   CLOUDY    32  29  88 SW6       29.68S WCI  26
Albany         MOCLDY    27  21  78 CALM      29.66R
$$

NJZ001-105-106-008-010-013-015-019>022-104-191400-
New Jersey

CITY           SKY/WX    TMP DP  RH WIND       PRES   REMARKS
Newark/Liberty FAIR      38  30  73 W13       29.71S WCI  30
Teterboro      MOCLDY    39  33  79 W10       29.71R WCI  32
Caldwell       CLOUDY    39  30  70 W10       29.72S WCI  32
Somerville     CLOUDY    38  30  73 NW6       29.73R WCI  33
Linden         FAIR      38  29  68 NW20G25   29.70F WCI  29
Perth Amboy      N/A     39 N/A N/A NW14G21     N/A  WCI  31
Sussex         MIX PCPN  32  30  92 SW7       29.70R FOG     WCI  26
Andover          N/A     32  31  96 CALM      29.71S
Trenton        FAIR      39  29  67 W13G21    29.72R WCI  31
Millville      CLOUDY    40  38  93 W5        29.76S
Atlantic City  CLOUDY    43  39  86 W5        29.76
Wrightstown    NOT AVBL
Toms River     FAIR     N/A N/A N/A SW3       29.75R HAZE
Belmar         CLOUDY    35  35 100 W6        29.74R WCI  30
$$

PAZ047>061-062-071-191400-
Eastern Pennsylvania

CITY           SKY/WX    TMP DP  RH WIND       PRES   REMARKS
Philadelphia   MOCLDY    36  33  89 W8        29.76R WCI  30
Allentown      CLOUDY    35  31  85 W8        29.75R FOG     WCI  29
Scranton       CLOUDY    34  29  82 SW10      29.70R WCI  26
$$

CTZ002-004>006-009-010-012-RIZ004-006-007-MAZ004-011-015-191400-
Southern New England

 In CT

CITY           SKY/WX    TMP DP  RH WIND       PRES   REMARKS
Bradley Intl   FOG       20  18  92 CALM      29.65S VSB 1/4
Hartford       FAIR      22  22 100 CALM      29.67R
Danbury        FAIR      34  27  75 W7        29.68R WCI  28
Wtrbury/Oxford FAIR      32  30  92 NW6       29.66R WCI  26
Norwalk Harbor   N/A     36 N/A N/A W8          N/A  WCI  29
Bridgeport     FAIR      35  32  88 W5        29.69R WCI  31
Meriden        FOG       27  26  96 CALM      29.68R VSB 3/4
New Haven      FAIR      34  33  96 CALM      29.67S
Chester        NOT AVBL
Groton         FAIR      35  34  96 W5        29.66R WCI  31
Willimantic    FAIR      26  25  96 CALM      29.66R FOG

 In RI

CITY           SKY/WX    TMP DP  RH WIND       PRES   REMARKS
Providence     MOCLDY    36  32  87 W7        29.65R WCI  30
Block Island   CLOUDY    38  35  89 W15G21    29.66R WCI  29
Westerly       FAIR      38  32  79 W8        29.66R WCI  32

In MA

CITY           SKY/WX    TMP DP  RH WIND       PRES   REMARKS
Boston         FAIR      25  20  81 SW9       29.63R WCI  15
Worcester      MOCLDY    27  26  96 W16G25    29.57R FOG     WCI  15
Westfield      CLOUDY    18  15  88 CALM      29.65R
Provincetown   LGT RAIN  36  35  96 W14       29.63R WCI  27
Nantucket      CLOUDY    41  38  89 W16       29.62S
$$

ANZ330-335-338-340-345-350-353-355-191400-
Coastal Marine Observations


STATION/POSITION TIME  SKY/WX   TEMP    WIND        PRES    VSBY  WAVE
                                AIR SEA DIR/SP/G                  HT/PER
                 (UTC)          (F)     (DEG/KT/KT) (MB)    (MI)  (FT/S)
NY Harb Entrance 1250            42     290/ 17/ 21 1006.4          5/ 8
20 S Fire Island 1250            43 46              1006.2          7/ 8
Great South Bay  NOT AVBL
23 SSW Montauk P NOT AVBL
15 E Barnegat Li 1300               47                N/A           7/ 9
Hudson Canyon    1250            45 49  310/ 17/ 23 1007.6         10/ 8
Kings Point      1230            40 39  330/ 11/ 13 1006.4
Execution Rocks  1300            39 32  270/ 12/ 17   N/A
Western LI Sound 1150            40     270/ 16/ 21   N/A           1/ 3
Central LI Sound NOT AVBL
Robbins Reef     1230            39     300/ 13/ 16 1006.0
$$


>>>>>>>>>>>>>>>>>>>>>>>>>>>> KEY <<<<<<<<<<<<<<<<<<<<<<<<<<<
>                                                          <
>     SKY/WX - Sky Condition/Present Weather               <
>     TMP    - Temperature in Fahrenheit                   <
>     DP     - Dew Point in Fahrenheit                     <
>     RH     - Relative Humidity in Percent                <
>     WIND   - Direction (from) and Speed in MPH           <
>     PRES   - Mean Sea Level Pressure (inches of Hg)      <
>     WCI    - Wind Chill Index                            <
>     VSB    - Visibility in Miles                         <
>     HX     - Heat Index                                  <
>     TC     - Temperature in Celsius                      <
>     VRB    - Variable Wind Direction                     <
>                                                          <
>>>>>>>>>>>>>>>>>>>>>>>>>>>> KEY <<<<<<<<<<<<<<<<<<<<<<<<<<<



 

View Past Reports for Upton, NY.

Products Courtesy of NOAA-NWS
NWS Information Parsing Script by Ken True at Saratoga Weather - Script by SE Lincoln Weather.